Imperial, CA

10:29 PM PDT on August 23, 2016 (GMT -0700)
Imperial County

Weather History for KIPL - February, 2013

Change the Weather History Date:

Tuesday, February 19, 2013

  Actual Average Record
Temperature  
Mean Temperature 55 °F -  
Max Temperature 64 °F 75 °F 89 °F (1977)
Min Temperature 46 °F 47 °F 33 °F (1955)
Degree Days  
Heating Degree Days 10    
Growing Degree Days 5 (Base 50)    
Moisture  
Dew Point 36 °F    
Average Humidity 48    
Maximum Humidity 61    
Minimum Humidity 34    
Precipitation  
Precipitation 0.00 in - - ()
Sea Level Pressure  
Sea Level Pressure 29.78 in    
Wind  
Wind Speed 13 mph (West)    
Max Wind Speed 31 mph    
Max Gust Speed 38 mph    
Visibility 10 miles    
Events      
Averages and records for this station are not official NWS values.
T = Trace of Precipitation, MM = Missing Value Source: NWS Daily Summary

Daily Weather History Graph

Daily Weather History Graph

Search for Another Location

Airport or City:

Trip Planner

Search our weather history database for the weather conditions in past years. The results will help you decide how hot, cold, wet, or windy it might be!

Date:

Astronomy

Feb. 19, 2013 Rise Set
Actual Time 6:21 AM PST 5:31 PM PST
Civil Twilight 5:56 AM PST 5:56 PM PST
Nautical Twilight 5:27 AM PST 6:25 PM PST
Astronomical Twilight 4:58 AM PST 6:54 PM PST
Moon 12:16 PM PST (2/19) 1:47 AM PST (2/19)
Length of Visible Light 12h 00m
Length of Day
11h 10m
Waxing Gibbous, 68% of the Moon is Illuminated
Feb 19
Waxing Gibbous
Feb 25
Full
Mar 4
Last Quarter
Mar 11
New
Mar 19
First Quarter

Hourly Weather History & Observations

Time (PST) Temp. Dew Point Humidity Pressure Visibility Wind Dir Wind Speed Gust Speed Precip Events Conditions
12:53 AM 55.0 °F 35.1 °F 47% 29.84 in 10.0 mi West 9.2 mph - N/A   Clear
1:53 AM 53.1 °F 34.0 °F 48% 29.83 in 10.0 mi West 9.2 mph - N/A   Clear
2:53 AM 48.0 °F 35.1 °F 61% 29.82 in 10.0 mi West 8.1 mph - N/A   Clear
3:53 AM 48.0 °F 34.0 °F 58% 29.82 in 10.0 mi WSW 6.9 mph - N/A   Clear
4:53 AM 46.9 °F 34.0 °F 61% 29.83 in 10.0 mi WNW 8.1 mph - N/A   Clear
5:53 AM 48.0 °F 35.1 °F 61% 29.83 in 10.0 mi WSW 6.9 mph - N/A   Clear
6:53 AM 48.9 °F 35.1 °F 59% 29.85 in 10.0 mi West 9.2 mph - N/A   Clear
7:53 AM 55.9 °F 36.0 °F 47% 29.86 in 10.0 mi West 19.6 mph 23.0 mph N/A   Clear
8:53 AM 57.9 °F 36.0 °F 44% 29.84 in 10.0 mi West 16.1 mph 25.3 mph N/A   Clear
10:53 AM 62.6 °F 35.6 °F 37% 29.82 in 10.0 mi West 21.9 mph 27.6 mph N/A   Clear
11:53 AM 64.0 °F 35.1 °F 34% 29.81 in 10.0 mi West 17.3 mph 28.8 mph N/A   Clear
12:53 PM 62.1 °F 36.0 °F 38% 29.78 in 10.0 mi West 21.9 mph 33.4 mph N/A   Clear
1:53 PM 63.0 °F 37.9 °F 40% 29.75 in 10.0 mi West 25.3 mph 36.8 mph N/A   Clear
2:53 PM 62.1 °F 37.0 °F 39% 29.74 in 10.0 mi West 25.3 mph 38.0 mph N/A   Clear
4:53 PM 60.1 °F 37.9 °F 44% 29.72 in 10.0 mi West 17.3 mph 26.5 mph N/A   Clear
5:53 PM 57.9 °F 39.0 °F 49% 29.71 in 10.0 mi West 31.1 mph 38.0 mph N/A   Clear
6:53 PM 55.9 °F 37.9 °F 51% 29.74 in 10.0 mi West 23.0 mph 36.8 mph N/A   Clear
7:53 PM 55.0 °F 35.1 °F 47% 29.75 in 10.0 mi WSW 15.0 mph - N/A   Clear
8:53 PM 54.0 °F 37.0 °F 53% 29.72 in 10.0 mi WSW 21.9 mph 33.4 mph N/A   Clear
9:53 PM 54.0 °F 35.1 °F 49% 29.75 in 10.0 mi West 11.5 mph - N/A   Mostly Cloudy
10:53 PM 53.1 °F 34.0 °F 48% 29.72 in 10.0 mi WNW 4.6 mph - N/A   Partly Cloudy
11:53 PM 54.0 °F 33.1 °F 45% 29.69 in 10.0 mi WSW 21.9 mph 28.8 mph N/A   Clear